Main page
METAR-TAF:

METAR-TAF

Airports :

Oil platform

Troll A, Norway

latitude: 60-38-42N, longitude: 3-43-29E, elevation: 20 m

Current weather observation

The report was made 16 minutes ago, at 05:20 UTC
Wind 12 kt from the South
Temperature 17°C
Humidity 68%
Pressure 1014 hPa
Visibility 10 km or more

METAR: ENQA 170520Z AUTO 18012KT 9999NDV NCD 17/11 Q1014 W12/S3

Time: 07:36 (05:36 UTC)


TAF: missing

Weather observations and forecasts of more than 4000 airports (METAR and TAF reports).

The available stations are represented by yellow and red dots on the map.

Hover mouse over dot to see the name of the station.

Then click to see weather observations and forecasts.

To change the map : click on the green buttons with a black cross to zoom in, on the green button with a dash to zoom out, or on the green arrows for adjacent maps.


METAR-TAF: